This is the latest recevied weather packets stored in our database for station/object WB4MOZ-3. If no packets are shown the sender has not sent any weather packets the latest 1 day(s).
| Time | Temp. | Humidity | Pressure | Rain* | Wind** | Luminosity | Snow |
|---|---|---|---|---|---|---|---|
| 1777963067 | 23.33° C | 99% | 1012.1 hPa | 1.27 mm | 1.34 m/s, 31° | - | - |
| 1777962767 | 23.33° C | 99% | 1012.2 hPa | 2.29 mm | 1.34 m/s, 66° | - | - |
| 1777962466 | 23.33° C | 99% | 1012.5 hPa | 5.08 mm | 2.24 m/s, 60° | - | - |
| 1777962167 | 23.33° C | 99% | 1012.6 hPa | 5.08 mm | 1.34 m/s, 73° | - | - |
| 1777961566 | 23.89° C | 98% | 1012.7 hPa | 4.83 mm | 0.45 m/s, 38° | - | - |
| 1777961266 | 23.89° C | 98% | 1012.8 hPa | 4.83 mm | 1.34 m/s, 61° | - | - |
| 1777960966 | 23.89° C | 98% | 1012.9 hPa | 4.83 mm | 2.24 m/s, 94° | - | - |
| 1777960667 | 23.89° C | 96% | 1013 hPa | 4.83 mm | 2.24 m/s, 89° | - | - |
| 1777960366 | 24.44° C | 96% | 1012.9 hPa | 4.83 mm | 0.89 m/s, 63° | - | - |
| 1777960066 | 24.44° C | 96% | 1012.8 hPa | 4.83 mm | 2.24 m/s, 31° | - | - |
| 1777959767 | 24.44° C | 95% | 1012.7 hPa | 4.57 mm | 2.68 m/s, 73° | - | - |
| 1777959466 | 24.44° C | 94% | 1012.8 hPa | 3.81 mm | 2.24 m/s, 96° | - | - |
| 1777959166 | 24.44° C | 91% | 1013.2 hPa | 2.79 mm | 2.24 m/s, 172° | - | - |
| 1777958866 | 25° C | 90% | 1013.2 hPa | 0 mm | 3.58 m/s, 108° | - | - |
| 1777958566 | 25° C | 88% | 1013.2 hPa | 0 mm | 3.58 m/s, 104° | - | - |
| 1777958267 | 25° C | 85% | 1013.1 hPa | 0 mm | 2.68 m/s, 99° | - | - |
| 1777957966 | 24.44° C | 84% | 1013 hPa | 0 mm | 2.24 m/s, 60° | - | - |
| 1777957066 | 24.44° C | 85% | 1013.2 hPa | 0 mm | 1.34 m/s, 61° | - | - |
| 1777956766 | 24.44° C | 84% | 1013.3 hPa | 0 mm | 0.89 m/s, 18° | - | - |
| 1777956166 | 25° C | 83% | 1013.1 hPa | 0 mm | 2.24 m/s, 59° | - | - |
| 1777955866 | 25° C | 81% | 1013.2 hPa | 0 mm | 2.68 m/s, 74° | - | - |
| 1777955566 | 25° C | 80% | 1013.2 hPa | 0 mm | 2.68 m/s, 83° | - | - |
| 1777955266 | 25° C | 81% | 1013.3 hPa | 0 mm | 2.24 m/s, 96° | - | - |
| 1777954966 | 25° C | 80% | 1013.4 hPa | 0 mm | 2.24 m/s, 71° | - | - |
| 1777954366 | 25° C | 80% | 1013.6 hPa | 0 mm | 1.34 m/s, 49° | - | - |
* Rain latest hour (hover to see other rain measurements)
** Current wind speed in m/s (hover to see current wind gust speed)